San Carmen — WSD2145 — position and weather

sailwx.info

Track history (hours):
 
Tides and Currents Weather Stations Pressure Air Temp Water Temp Dewpoint Dewpoint Depression Visibility Wind Speed Wind Dir Waves Ship Positions

San Carmen

Owner: BUFFALO MARINE SERVICE INC, HOUSTON, TX. More information available from US FCC via Universal Licensing System and Coast Guard Vessel Documentation Center.

Last reported at 2018-Feb-25 21:30 UTC. Time now 2018-Feb-25 21:31 UTC.
Position N 29°41' W 095°00'.

Length 20 m; draft 2.1 m.

Type: Tug. MMSI: 366941810.

Date/timePositionNaut miles runAvg speedWind from/ knotsBaromVisibWave heightAir tempDewpointWater temp
2018-Feb-25 21:30N 29°41' W 095°00'0 0.0
2018-Feb-25 21:00N 29°41' W 095°00'0 0.0
2018-Feb-25 20:24N 29°41' W 095°00'0 0.0
2018-Feb-25 19:56N 29°41' W 095°00'0 0.0
2018-Feb-25 19:30N 29°41' W 095°00'0 0.0
2018-Feb-25 19:00N 29°41' W 095°00'0 0.0
2018-Feb-25 18:30N 29°41' W 095°00'0 0.0
2018-Feb-25 18:00N 29°41' W 095°00'0 0.1
2018-Feb-25 17:30N 29°41' W 095°00'1 1.7
2018-Feb-25 17:00N 29°42' W 094°60'3 5.5
2018-Feb-25 16:30N 29°44' W 095°02'1 0.2
2018-Feb-25 09:36N 29°44' W 095°03'0 0.0
2018-Feb-25 06:46N 29°44' W 095°03'0 0.0
2018-Feb-24 21:26N 29°44' W 095°03'0 0.6
2018-Feb-24 20:59N 29°44' W 095°03'0 0.3
2018-Feb-24 20:30N 29°44' W 095°03'2 3.1
2018-Feb-24 19:59N 29°45' W 095°04'2 0.1
2018-Feb-24 01:47N 29°45' W 095°06'0 0.7
2018-Feb-24 01:30N 29°45' W 095°06'0 0.1
2018-Feb-24 01:00N 29°45' W 095°06'0 0.0
2018-Feb-24 00:30N 29°45' W 095°06'0 0.0
2018-Feb-24 00:00N 29°45' W 095°06'0 0.0
2018-Feb-23 23:29N 29°45' W 095°06'0 0.0
2018-Feb-23 23:00N 29°45' W 095°06'0 0.0
2018-Feb-23 22:28N 29°45' W 095°06'0 0.0
2018-Feb-23 22:00N 29°45' W 095°06'0 0.0
2018-Feb-23 21:30N 29°45' W 095°06'0 0.0
2018-Feb-23 21:00N 29°45' W 095°06'0 0.0
2018-Feb-23 20:30N 29°45' W 095°06'0 0.0
2018-Feb-23 19:59N 29°45' W 095°06'0 0.2
2018-Feb-23 19:27N 29°45' W 095°06'1 1.3
2018-Feb-23 18:58N 29°46' W 095°05'3 5.4
2018-Feb-23 18:29N 29°44' W 095°03'3 5.3
2018-Feb-23 18:00N 29°42' W 095°01'2 3.4
2018-Feb-23 17:30N 29°41' W 094°60'0 0.0
2018-Feb-23 17:00N 29°41' W 094°60'0 0.0
2018-Feb-23 16:30N 29°41' W 094°60'0 0.0
2018-Feb-23 16:00N 29°41' W 094°60'0 0.0
2018-Feb-23 12:36N 29°41' W 094°60'0 0.1
2018-Feb-23 12:29N 29°41' W 094°60'0 0.0
2018-Feb-23 12:00N 29°41' W 094°60'0 0.0
2018-Feb-23 11:28N 29°41' W 094°60'0 0.1
2018-Feb-23 10:59N 29°41' W 094°60'0 0.0
2018-Feb-23 10:30N 29°41' W 094°60'0 0.0
2018-Feb-23 10:00N 29°41' W 094°60'0 0.0
2018-Feb-23 09:30N 29°41' W 094°60'0 0.0
2018-Feb-23 09:00N 29°41' W 094°60'0 0.0
2018-Feb-23 08:30N 29°41' W 094°60'0 0.0
2018-Feb-23 07:59N 29°41' W 094°60'0 0.0
2018-Feb-23 07:29N 29°41' W 094°60'0 0.0
2018-Feb-23 07:01N 29°41' W 094°60'0 0.0
2018-Feb-23 06:31N 29°41' W 094°60'0 0.0
2018-Feb-23 05:58N 29°41' W 094°60'0 0.0
2018-Feb-23 05:22N 29°41' W 094°60'0 0.0
2018-Feb-23 05:00N 29°41' W 094°60'0 0.0
2018-Feb-23 04:30N 29°41' W 094°60'0 0.0
2018-Feb-23 04:00N 29°41' W 094°60'0 0.0
2018-Feb-23 03:30N 29°41' W 094°60'0 0.0
2018-Feb-23 03:00N 29°41' W 094°60'0 0.0
2018-Feb-23 02:29N 29°41' W 094°60'0 0.0
2018-Feb-23 02:00N 29°41' W 094°60'0 0.0
2018-Feb-23 01:30N 29°41' W 094°60'0 0.0
2018-Feb-23 00:59N 29°41' W 094°60'0 0.0
2018-Feb-23 00:30N 29°41' W 094°60'0 0.0
2018-Feb-23 00:01N 29°41' W 094°60'0 0.0
2018-Feb-22 23:30N 29°41' W 094°60'0 0.0
2018-Feb-22 23:00N 29°41' W 094°60'0 0.1
2018-Feb-22 22:29N 29°41' W 094°60'0 0.1
2018-Feb-22 21:59N 29°41' W 094°60'0 0.0
2018-Feb-22 21:30N 29°41' W 094°60'0 0.0
2018-Feb-22 21:00N 29°41' W 094°60'0 0.0
2018-Feb-22 20:28N 29°41' W 094°60'1 1.4
2018-Feb-22 20:01N 29°41' W 094°59'2 4.8
2018-Feb-22 19:30N 29°43' W 095°01'2 0.2
2018-Feb-22 05:29N 29°44' W 095°03'1 0.1
2018-Feb-21 23:08N 29°44' W 095°03'1 4.6
2018-Feb-21 22:49N 29°43' W 095°01'2 4.9
2018-Feb-21 22:30N 29°42' W 094°60'3 5.2
2018-Feb-21 21:56N 29°39' W 094°58'3 0.4
2018-Feb-21 14:35N 29°37' W 095°01'0 0.1
2018-Feb-21 14:28N 29°37' W 095°01'0 0.0
2018-Feb-21 14:00N 29°37' W 095°01'0 0.0
2018-Feb-21 13:30N 29°37' W 095°01'0 0.0
2018-Feb-21 13:00N 29°37' W 095°01'1 1.7
2018-Feb-21 12:30N 29°37' W 094°60'2 3.6
2018-Feb-21 12:00N 29°38' W 094°58'2 4.2
2018-Feb-21 11:30N 29°39' W 094°58'3 5.6
2018-Feb-21 11:00N 29°42' W 095°00'3 4.9
2018-Feb-21 10:24N 29°44' W 095°03'0 0.4
2018-Feb-21 09:29N 29°44' W 095°03'3 0.2
2018-Feb-20 17:32N 29°46' W 095°05'2 5.2
2018-Feb-20 17:14N 29°45' W 095°04'1 3.8
2018-Feb-20 16:59N 29°44' W 095°03'0 0.0
2018-Feb-20 14:03N 29°44' W 095°03'0 0.0
2018-Feb-20 13:57N 29°44' W 095°03'0 0.0
2018-Feb-20 13:30N 29°44' W 095°03'0 0.0
2018-Feb-20 10:02N 29°44' W 095°03'0 0.0
2018-Feb-20 09:49N 29°44' W 095°03'0 0.0
2018-Feb-20 08:30N 29°44' W 095°03'0 0.0
2018-Feb-20 08:00N 29°44' W 095°03'0 0.0
2018-Feb-20 07:30N 29°44' W 095°03'0 0.0
2018-Feb-20 06:49N 29°44' W 095°03'0 0.1
2018-Feb-20 06:25N 29°44' W 095°03'0 0.6
2018-Feb-20 06:00N 29°44' W 095°03'0 0.1
2018-Feb-20 05:30N 29°44' W 095°03'0 0.0
2018-Feb-20 04:59N 29°44' W 095°03'0 0.0
2018-Feb-20 04:17N 29°44' W 095°03'0 0.0
2018-Feb-20 03:56N 29°44' W 095°03'0 0.0
2018-Feb-20 03:29N 29°44' W 095°03'0 0.0
2018-Feb-20 02:59N 29°44' W 095°03'0 0.0
2018-Feb-20 02:30N 29°44' W 095°03'0 0.0
2018-Feb-20 01:57N 29°44' W 095°03'0 0.0
2018-Feb-20 01:17N 29°44' W 095°03'0 0.0
2018-Feb-20 00:52N 29°44' W 095°03'0 0.0
2018-Feb-20 00:28N 29°44' W 095°03'0 0.0
2018-Feb-19 23:44N 29°44' W 095°03'0 0.0
2018-Feb-19 23:30N 29°44' W 095°03'0 0.0
2018-Feb-19 22:54N 29°44' W 095°03'0 0.0
2018-Feb-19 22:30N 29°44' W 095°03'0 0.0
2018-Feb-19 22:00N 29°44' W 095°03'0 0.0
2018-Feb-19 21:20N 29°44' W 095°03'1 2.7
2018-Feb-19 20:55N 29°45' W 095°04'2 0.3
2018-Feb-19 14:18N 29°45' W 095°06'0 0.0
2018-Feb-19 13:59N 29°45' W 095°06'0 0.0
2018-Feb-19 13:30N 29°45' W 095°06'0 0.0
2018-Feb-19 09:20N 29°45' W 095°06'0 0.0
2018-Feb-19 08:47N 29°45' W 095°06'0 0.0
2018-Feb-19 08:30N 29°45' W 095°06'0 0.0
2018-Feb-19 08:00N 29°45' W 095°06'0 0.4
2018-Feb-19 07:30N 29°45' W 095°06'0 0.1
2018-Feb-19 07:00N 29°45' W 095°06'0 0.0
2018-Feb-19 06:28N 29°45' W 095°06'0 0.0
2018-Feb-19 06:00N 29°45' W 095°06'0 0.0
2018-Feb-19 05:29N 29°45' W 095°06'0 0.0
2018-Feb-19 03:37N 29°45' W 095°06'2 0.7
2018-Feb-19 00:11N 29°44' W 095°09'0 0.0
2018-Feb-18 09:05N 29°44' W 095°09'1 5.9
2018-Feb-18 08:58N 29°44' W 095°08'0 0.4
2018-Feb-18 08:28N 29°44' W 095°08'0 0.0
2018-Feb-18 07:59N 29°44' W 095°08'0 0.0
2018-Feb-18 07:29N 29°44' W 095°08'0 0.0
2018-Feb-18 07:00N 29°44' W 095°08'0 0.0
2018-Feb-18 06:27N 29°44' W 095°08'0 0.0
2018-Feb-18 05:59N 29°44' W 095°08'0 0.0
2018-Feb-18 05:30N 29°44' W 095°08'0 0.0
2018-Feb-18 04:59N 29°44' W 095°08'0 0.0
2018-Feb-18 04:30N 29°44' W 095°08'0 0.0
2018-Feb-18 04:00N 29°44' W 095°08'0 0.0
2018-Feb-18 03:23N 29°44' W 095°08'0 0.2
2018-Feb-18 02:57N 29°44' W 095°08'6 0.3
2018-Feb-17 06:58N 29°43' W 095°14'0 0.0
2018-Feb-17 06:30N 29°43' W 095°14'0 0.0
2018-Feb-17 05:54N 29°43' W 095°14'0 0.0
2018-Feb-17 05:29N 29°43' W 095°14'4 1.2
2018-Feb-17 02:02N 29°44' W 095°09'0 5.5
2018-Feb-17 02:00N 29°44' W 095°09'2 0.3
2018-Feb-16 18:41N 29°46' W 095°07'0 0.1
2018-Feb-16 18:01N 29°46' W 095°07'0 0.8
2018-Feb-16 18:00N 29°46' W 095°07'0 0.5
2018-Feb-16 17:29N 29°46' W 095°07'1 2.1
2018-Feb-16 16:58N 29°45' W 095°06'1 2.7
2018-Feb-16 16:30N 29°44' W 095°07'3 6.3
2018-Feb-16 16:00N 29°45' W 095°10'5 0.4
2018-Feb-16 02:29N 29°43' W 095°16'  
Track history (hours):
 
Tides and Currents Weather Stations Pressure Air Temp Water Temp Dewpoint Dewpoint Depression Visibility Wind Speed Wind Dir Waves Ship Positions

San Carmen

Owner: BUFFALO MARINE SERVICE INC, HOUSTON, TX. More information available from US FCC via Universal Licensing System and Coast Guard Vessel Documentation Center.

Last reported at 2018-Feb-25 21:30 UTC. Time now 2018-Feb-25 21:31 UTC.
Position N 29°41' W 095°00'.

Length 20 m; draft 2.1 m.

Type: Tug. MMSI: 366941810.

Date/timePositionNaut miles runAvg speedWind from/ knotsBaromVisibWave heightAir tempDewpointWater temp
2018-Feb-25 21:30N 29°41' W 095°00'0 0.0
2018-Feb-25 21:00N 29°41' W 095°00'0 0.0
2018-Feb-25 20:24N 29°41' W 095°00'0 0.0
2018-Feb-25 19:56N 29°41' W 095°00'0 0.0
2018-Feb-25 19:30N 29°41' W 095°00'0 0.0
2018-Feb-25 19:00N 29°41' W 095°00'0 0.0
2018-Feb-25 18:30N 29°41' W 095°00'0 0.0
2018-Feb-25 18:00N 29°41' W 095°00'0 0.1
2018-Feb-25 17:30N 29°41' W 095°00'1 1.7
2018-Feb-25 17:00N 29°42' W 094°60'3 5.5
2018-Feb-25 16:30N 29°44' W 095°02'1 0.2
2018-Feb-25 09:36N 29°44' W 095°03'0 0.0
2018-Feb-25 06:46N 29°44' W 095°03'0 0.0
2018-Feb-24 21:26N 29°44' W 095°03'0 0.6
2018-Feb-24 20:59N 29°44' W 095°03'0 0.3
2018-Feb-24 20:30N 29°44' W 095°03'2 3.1
2018-Feb-24 19:59N 29°45' W 095°04'2 0.1
2018-Feb-24 01:47N 29°45' W 095°06'0 0.7
2018-Feb-24 01:30N 29°45' W 095°06'0 0.1
2018-Feb-24 01:00N 29°45' W 095°06'0 0.0
2018-Feb-24 00:30N 29°45' W 095°06'0 0.0
2018-Feb-24 00:00N 29°45' W 095°06'0 0.0
2018-Feb-23 23:29N 29°45' W 095°06'0 0.0
2018-Feb-23 23:00N 29°45' W 095°06'0 0.0
2018-Feb-23 22:28N 29°45' W 095°06'0 0.0
2018-Feb-23 22:00N 29°45' W 095°06'0 0.0
2018-Feb-23 21:30N 29°45' W 095°06'0 0.0
2018-Feb-23 21:00N 29°45' W 095°06'0 0.0
2018-Feb-23 20:30N 29°45' W 095°06'0 0.0
2018-Feb-23 19:59N 29°45' W 095°06'0 0.2
2018-Feb-23 19:27N 29°45' W 095°06'1 1.3
2018-Feb-23 18:58N 29°46' W 095°05'3 5.4
2018-Feb-23 18:29N 29°44' W 095°03'3 5.3
2018-Feb-23 18:00N 29°42' W 095°01'2 3.4
2018-Feb-23 17:30N 29°41' W 094°60'0 0.0
2018-Feb-23 17:00N 29°41' W 094°60'0 0.0
2018-Feb-23 16:30N 29°41' W 094°60'0 0.0
2018-Feb-23 16:00N 29°41' W 094°60'0 0.0
2018-Feb-23 12:36N 29°41' W 094°60'0 0.1
2018-Feb-23 12:29N 29°41' W 094°60'0 0.0
2018-Feb-23 12:00N 29°41' W 094°60'0 0.0
2018-Feb-23 11:28N 29°41' W 094°60'0 0.1
2018-Feb-23 10:59N 29°41' W 094°60'0 0.0
2018-Feb-23 10:30N 29°41' W 094°60'0 0.0
2018-Feb-23 10:00N 29°41' W 094°60'0 0.0
2018-Feb-23 09:30N 29°41' W 094°60'0 0.0
2018-Feb-23 09:00N 29°41' W 094°60'0 0.0
2018-Feb-23 08:30N 29°41' W 094°60'0 0.0
2018-Feb-23 07:59N 29°41' W 094°60'0 0.0
2018-Feb-23 07:29N 29°41' W 094°60'0 0.0
2018-Feb-23 07:01N 29°41' W 094°60'0 0.0
2018-Feb-23 06:31N 29°41' W 094°60'0 0.0
2018-Feb-23 05:58N 29°41' W 094°60'0 0.0
2018-Feb-23 05:22N 29°41' W 094°60'0 0.0
2018-Feb-23 05:00N 29°41' W 094°60'0 0.0
2018-Feb-23 04:30N 29°41' W 094°60'0 0.0
2018-Feb-23 04:00N 29°41' W 094°60'0 0.0
2018-Feb-23 03:30N 29°41' W 094°60'0 0.0
2018-Feb-23 03:00N 29°41' W 094°60'0 0.0
2018-Feb-23 02:29N 29°41' W 094°60'0 0.0
2018-Feb-23 02:00N 29°41' W 094°60'0 0.0
2018-Feb-23 01:30N 29°41' W 094°60'0 0.0
2018-Feb-23 00:59N 29°41' W 094°60'0 0.0
2018-Feb-23 00:30N 29°41' W 094°60'0 0.0
2018-Feb-23 00:01N 29°41' W 094°60'0 0.0
2018-Feb-22 23:30N 29°41' W 094°60'0 0.0
2018-Feb-22 23:00N 29°41' W 094°60'0 0.1
2018-Feb-22 22:29N 29°41' W 094°60'0 0.1
2018-Feb-22 21:59N 29°41' W 094°60'0 0.0
2018-Feb-22 21:30N 29°41' W 094°60'0 0.0
2018-Feb-22 21:00N 29°41' W 094°60'0 0.0
2018-Feb-22 20:28N 29°41' W 094°60'1 1.4
2018-Feb-22 20:01N 29°41' W 094°59'2 4.8
2018-Feb-22 19:30N 29°43' W 095°01'2 0.2
2018-Feb-22 05:29N 29°44' W 095°03'1 0.1
2018-Feb-21 23:08N 29°44' W 095°03'1 4.6
2018-Feb-21 22:49N 29°43' W 095°01'2 4.9
2018-Feb-21 22:30N 29°42' W 094°60'3 5.2
2018-Feb-21 21:56N 29°39' W 094°58'3 0.4
2018-Feb-21 14:35N 29°37' W 095°01'0 0.1
2018-Feb-21 14:28N 29°37' W 095°01'0 0.0
2018-Feb-21 14:00N 29°37' W 095°01'0 0.0
2018-Feb-21 13:30N 29°37' W 095°01'0 0.0
2018-Feb-21 13:00N 29°37' W 095°01'1 1.7
2018-Feb-21 12:30N 29°37' W 094°60'2 3.6
2018-Feb-21 12:00N 29°38' W 094°58'2 4.2
2018-Feb-21 11:30N 29°39' W 094°58'3 5.6
2018-Feb-21 11:00N 29°42' W 095°00'3 4.9
2018-Feb-21 10:24N 29°44' W 095°03'0 0.4
2018-Feb-21 09:29N 29°44' W 095°03'3 0.2
2018-Feb-20 17:32N 29°46' W 095°05'2 5.2
2018-Feb-20 17:14N 29°45' W 095°04'1 3.8
2018-Feb-20 16:59N 29°44' W 095°03'0 0.0
2018-Feb-20 14:03N 29°44' W 095°03'0 0.0
2018-Feb-20 13:57N 29°44' W 095°03'0 0.0
2018-Feb-20 13:30N 29°44' W 095°03'0 0.0
2018-Feb-20 10:02N 29°44' W 095°03'0 0.0
2018-Feb-20 09:49N 29°44' W 095°03'0 0.0
2018-Feb-20 08:30N 29°44' W 095°03'0 0.0
2018-Feb-20 08:00N 29°44' W 095°03'0 0.0
2018-Feb-20 07:30N 29°44' W 095°03'0 0.0
2018-Feb-20 06:49N 29°44' W 095°03'0 0.1
2018-Feb-20 06:25N 29°44' W 095°03'0 0.6
2018-Feb-20 06:00N 29°44' W 095°03'0 0.1
2018-Feb-20 05:30N 29°44' W 095°03'0 0.0
2018-Feb-20 04:59N 29°44' W 095°03'0 0.0
2018-Feb-20 04:17N 29°44' W 095°03'0 0.0
2018-Feb-20 03:56N 29°44' W 095°03'0 0.0
2018-Feb-20 03:29N 29°44' W 095°03'0 0.0
2018-Feb-20 02:59N 29°44' W 095°03'0 0.0
2018-Feb-20 02:30N 29°44' W 095°03'0 0.0
2018-Feb-20 01:57N 29°44' W 095°03'0 0.0
2018-Feb-20 01:17N 29°44' W 095°03'0 0.0
2018-Feb-20 00:52N 29°44' W 095°03'0 0.0
2018-Feb-20 00:28N 29°44' W 095°03'0 0.0
2018-Feb-19 23:44N 29°44' W 095°03'0 0.0
2018-Feb-19 23:30N 29°44' W 095°03'0 0.0
2018-Feb-19 22:54N 29°44' W 095°03'0 0.0
2018-Feb-19 22:30N 29°44' W 095°03'0 0.0
2018-Feb-19 22:00N 29°44' W 095°03'0 0.0
2018-Feb-19 21:20N 29°44' W 095°03'1 2.7
2018-Feb-19 20:55N 29°45' W 095°04'2 0.3
2018-Feb-19 14:18N 29°45' W 095°06'0 0.0
2018-Feb-19 13:59N 29°45' W 095°06'0 0.0
2018-Feb-19 13:30N 29°45' W 095°06'0 0.0
2018-Feb-19 09:20N 29°45' W 095°06'0 0.0
2018-Feb-19 08:47N 29°45' W 095°06'0 0.0
2018-Feb-19 08:30N 29°45' W 095°06'0 0.0
2018-Feb-19 08:00N 29°45' W 095°06'0 0.4
2018-Feb-19 07:30N 29°45' W 095°06'0 0.1
2018-Feb-19 07:00N 29°45' W 095°06'0 0.0
2018-Feb-19 06:28N 29°45' W 095°06'0 0.0
2018-Feb-19 06:00N 29°45' W 095°06'0 0.0
2018-Feb-19 05:29N 29°45' W 095°06'0 0.0
2018-Feb-19 03:37N 29°45' W 095°06'2 0.7
2018-Feb-19 00:11N 29°44' W 095°09'0 0.0
2018-Feb-18 09:05N 29°44' W 095°09'1 5.9
2018-Feb-18 08:58N 29°44' W 095°08'0 0.4
2018-Feb-18 08:28N 29°44' W 095°08'0 0.0
2018-Feb-18 07:59N 29°44' W 095°08'0 0.0
2018-Feb-18 07:29N 29°44' W 095°08'0 0.0
2018-Feb-18 07:00N 29°44' W 095°08'0 0.0
2018-Feb-18 06:27N 29°44' W 095°08'0 0.0
2018-Feb-18 05:59N 29°44' W 095°08'0 0.0
2018-Feb-18 05:30N 29°44' W 095°08'0 0.0
2018-Feb-18 04:59N 29°44' W 095°08'0 0.0
2018-Feb-18 04:30N 29°44' W 095°08'0 0.0
2018-Feb-18 04:00N 29°44' W 095°08'0 0.0
2018-Feb-18 03:23N 29°44' W 095°08'0 0.2
2018-Feb-18 02:57N 29°44' W 095°08'6 0.3
2018-Feb-17 06:58N 29°43' W 095°14'0 0.0
2018-Feb-17 06:30N 29°43' W 095°14'0 0.0
2018-Feb-17 05:54N 29°43' W 095°14'0 0.0
2018-Feb-17 05:29N 29°43' W 095°14'4 1.2
2018-Feb-17 02:02N 29°44' W 095°09'0 5.5
2018-Feb-17 02:00N 29°44' W 095°09'2 0.3
2018-Feb-16 18:41N 29°46' W 095°07'0 0.1
2018-Feb-16 18:01N 29°46' W 095°07'0 0.8
2018-Feb-16 18:00N 29°46' W 095°07'0 0.5
2018-Feb-16 17:29N 29°46' W 095°07'1 2.1
2018-Feb-16 16:58N 29°45' W 095°06'1 2.7
2018-Feb-16 16:30N 29°44' W 095°07'3 6.3
2018-Feb-16 16:00N 29°45' W 095°10'5 0.4
2018-Feb-16 02:29N 29°43' W 095°16'  

Dump ship's entire track history